"startDT [UTC]","vpos","CH4 [ppm]","stdev(CH4) [ppm]","CO2 [ppm]","stdev(CO2) [ppm]","H2O_reported [%]","stdev(H2O_reported)","CavityPressure [torr]","CavityTemp [C]","OutletValve","CH4_dry [ppm]","CO2_dry [ppm]","DasTemp [C]","EtalonTemp [C]","WarmBoxTemp [C]","MPVPosition","T_ECpre [C]","T_EC1 [C]","T_EC2 [C]","p_inlet [hPa]","p_in [hPa]","p_out [hPa]","T_inlet [C]","RH_inlet [%]","dwpt_inlet [C]","T_vent [C]","RH_vent [%]","dwpt_vent [C]","flow_vent [l min-1]","flow_inlet [l min-1]","dwpt_sample [C]","T_room [C]"
2015-09-11 00:00:00,0.0,1.98315,0.00316,392.133,0.042,0.9129,0.0043,139.998,45.001,31572.95213,2.00165,396.566,34.788,45.069,45.001,0.00,0.10,-272.74,-272.80,-10,512,-934,21.2,28.2,2.1,21.4,28.4,2.3,5.73,1.75,0.0,26.8
2015-09-11 00:01:00,0.0,1.97703,0.00079,392.081,0.036,0.9032,0.0026,140.000,45.001,31573.78869,1.99510,396.465,34.792,45.069,45.001,0.00,0.09,-272.74,-272.80,-9,512,-934,21.2,27.9,1.9,21.4,28.3,2.3,5.73,1.99,0.0,26.8
2015-09-11 00:02:00,0.0,1.97907,0.00159,392.125,0.040,0.9031,0.0022,139.998,45.000,31572.70824,1.99715,396.507,34.796,45.068,45.000,0.00,0.09,-272.75,-272.81,-9,512,-934,21.2,27.8,1.9,21.4,28.1,2.2,5.73,2.08,0.0,26.8
2015-09-11 00:03:00,0.0,1.97919,0.00090,392.132,0.036,0.9060,0.0020,140.002,45.000,31574.60382,1.99726,396.530,34.765,45.068,45.000,0.00,0.10,-272.74,-272.80,-10,512,-934,21.3,28.0,2.0,21.4,28.2,2.3,5.73,1.80,0.0,26.8
2015-09-11 00:04:00,0.0,1.98252,0.00098,392.157,0.034,0.9076,0.0016,139.999,45.000,31574.51540,2.00062,396.562,34.752,45.068,45.000,0.00,0.10,-272.74,-272.80,-10,512,-934,21.3,28.0,2.0,21.4,28.3,2.3,5.73,1.86,0.0,26.8
2015-09-11 00:05:00,0.0,1.98489,0.00232,392.169,0.043,0.9091,0.0026,139.997,45.000,31570.63764,2.00322,396.583,34.758,45.068,45.000,0.00,0.10,-272.75,-272.81,-9,512,-934,21.3,28.1,2.0,21.4,28.3,2.3,5.73,2.11,0.0,26.8
2015-09-11 00:06:00,0.0,1.98471,0.00083,392.172,0.031,0.9126,0.0021,140.001,45.000,31572.00116,2.00292,396.602,34.794,45.068,45.000,0.00,0.10,-272.74,-272.81,-9,512,-934,21.2,28.2,2.1,21.4,28.4,2.4,5.73,1.88,0.0,26.8
2015-09-11 00:07:00,0.0,1.98612,0.00140,392.178,0.035,0.9156,0.0031,140.002,45.000,31572.38416,2.00447,396.624,34.814,45.068,45.000,0.00,0.10,-272.74,-272.80,-10,512,-935,21.2,28.3,2.1,21.4,28.6,2.4,5.73,1.79,0.0,26.8
2015-09-11 00:08:00,0.0,1.98026,0.00190,392.118,0.044,0.9094,0.0034,140.001,45.000,31574.58702,1.99878,396.537,34.822,45.068,45.000,0.00,0.09,-272.75,-272.80,-10,512,-934,21.2,28.1,2.0,21.4,28.4,2.3,5.73,2.09,0.0,26.8
2015-09-11 00:09:00,0.0,1.97953,0.00082,392.112,0.030,0.9089,0.0029,140.001,45.000,31575.85458,1.99777,396.523,34.813,45.068,45.000,0.00,0.10,-272.74,-272.81,-9,512,-934,21.2,28.2,2.0,21.4,28.4,2.3,5.73,1.97,0.0,26.8
2015-09-11 00:10:00,0.0,1.98296,0.00268,392.142,0.054,0.9115,0.0016,140.000,45.000,31575.49912,2.00104,396.566,34.801,45.068,45.000,0.00,0.10,-272.74,-272.80,-9,512,-934,21.2,28.2,2.1,21.4,28.5,2.4,5.73,1.75,0.0,26.8
2015-09-11 00:11:00,0.0,1.98177,0.00141,392.115,0.040,0.9151,0.0030,140.003,45.000,31575.07664,2.00039,396.559,34.756,45.068,45.000,0.00,0.10,-272.75,-272.80,-10,512,-934,21.2,28.3,2.1,21.4,28.5,2.4,5.73,1.97,0.0,26.8
2015-09-11 00:12:00,0.0,1.98062,0.00046,392.091,0.027,0.9141,0.0016,140.001,44.999,31573.79462,1.99891,396.528,34.750,45.068,44.999,0.00,0.09,-272.75,-272.81,-10,512,-934,21.2,28.3,2.1,21.4,28.5,2.4,5.73,2.09,0.0,26.8
2015-09-11 00:13:00,0.0,1.98131,0.00093,392.097,0.038,0.9177,0.0022,140.001,45.000,31573.45717,1.99968,396.553,34.766,45.068,45.000,0.00,0.10,-272.74,-272.80,-9,512,-934,21.2,28.4,2.2,21.4,28.6,2.4,5.73,1.81,0.0,26.8
2015-09-11 00:14:00,0.0,1.98369,0.00137,392.116,0.061,0.9225,0.0027,140.002,45.000,31569.76192,2.00224,396.594,34.822,45.068,45.000,0.00,0.10,-272.74,-272.80,-9,512,-934,21.2,28.6,2.3,21.4,28.8,2.5,5.73,1.86,0.0,26.8
2015-09-11 00:15:00,0.0,1.98277,0.00204,392.203,0.075,0.9215,0.0030,140.003,45.000,31573.26178,2.00119,396.681,34.866,45.068,45.000,0.00,0.09,-272.75,-272.81,-10,512,-934,21.2,28.6,2.2,21.4,28.8,2.5,5.73,2.12,0.0,26.8
2015-09-11 00:16:00,0.0,1.98300,0.00290,392.203,0.078,0.9294,0.0051,140.002,45.001,31575.64325,2.00187,396.717,34.919,45.068,45.001,0.00,0.10,-272.74,-272.80,-10,512,-934,21.2,28.8,2.3,21.4,29.0,2.6,5.73,1.80,0.0,26.8
2015-09-11 00:17:00,0.0,1.97978,0.00095,392.288,0.027,0.9209,0.0020,140.001,45.001,31576.53035,1.99822,396.762,34.948,45.068,45.000,0.00,0.10,-272.74,-272.80,-9,512,-934,21.2,28.5,2.2,21.4,28.8,2.5,5.73,1.87,0.0,26.8
2015-09-11 00:18:00,0.0,1.98547,0.00263,392.342,0.138,0.9273,0.0024,140.001,45.001,31578.49532,2.00400,396.846,34.938,45.068,45.000,0.00,0.09,-272.75,-272.81,-9,512,-935,21.2,28.7,2.3,21.4,28.9,2.6,5.73,2.11,-0.0,26.8
2015-09-11 00:19:00,0.0,1.98606,0.00141,392.543,0.040,0.9301,0.0035,139.999,45.000,31575.60787,2.00480,397.064,34.891,45.068,45.000,0.00,0.09,-272.74,-272.81,-10,512,-934,21.2,28.8,2.4,21.4,29.0,2.6,5.73,1.90,0.0,26.8
2015-09-11 00:20:00,0.0,1.98850,0.00178,392.725,0.042,0.9361,0.0051,140.000,45.000,31574.14345,2.00724,397.277,34.850,45.067,44.999,0.00,0.10,-272.73,-272.80,-10,512,-934,21.3,29.0,2.5,21.4,29.2,2.7,5.73,1.76,0.0,26.8
2015-09-11 00:21:00,0.0,1.98852,0.00112,392.796,0.036,0.9357,0.0026,140.000,44.999,31573.29317,2.00737,397.350,34.815,45.067,44.999,0.00,0.10,-272.75,-272.81,-9,512,-934,21.3,29.0,2.5,21.4,29.3,2.7,5.73,2.00,0.0,26.8
2015-09-11 00:22:00,0.0,1.99051,0.00154,392.933,0.053,0.9367,0.0041,139.998,44.999,31570.62341,2.00946,397.493,34.811,45.067,44.999,0.00,0.09,-272.75,-272.81,-9,512,-934,21.2,29.0,2.5,21.4,29.3,2.8,5.73,2.08,0.0,26.8
2015-09-11 00:23:00,0.0,1.98902,0.00238,392.920,0.072,0.9306,0.0034,140.003,44.999,31572.04329,2.00763,397.448,34.811,45.067,45.000,0.00,0.10,-272.73,-272.80,-10,512,-934,21.2,28.8,2.4,21.4,29.1,2.7,5.73,1.78,0.0,26.8
2015-09-11 00:24:00,0.0,1.99181,0.00119,393.054,0.051,0.9350,0.0028,140.000,45.000,31570.74540,2.01063,397.606,34.817,45.068,45.000,0.00,0.10,-272.74,-272.80,-10,512,-934,21.2,29.0,2.5,21.4,29.2,2.7,5.73,1.91,0.0,26.8
2015-09-11 00:25:00,0.0,1.99313,0.00109,393.049,0.043,0.9366,0.0017,139.997,45.000,31569.19930,2.01199,397.612,34.829,45.068,45.001,0.00,0.09,-272.75,-272.81,-9,512,-934,21.2,29.0,2.5,21.4,29.3,2.8,5.73,2.11,0.0,26.8
2015-09-11 00:26:00,0.0,1.99246,0.00202,393.077,0.055,0.9381,0.0030,139.998,45.000,31573.71383,2.01149,397.647,34.873,45.069,45.001,0.00,0.10,-272.74,-272.81,-9,512,-934,21.2,29.1,2.5,21.4,29.4,2.8,5.73,1.79,0.0,26.8
2015-09-11 00:27:00,0.0,1.99365,0.00176,393.116,0.049,0.9368,0.0028,139.999,45.001,31576.19571,2.01250,397.678,34.862,45.069,45.001,0.00,0.10,-272.74,-272.79,-10,512,-934,21.2,29.0,2.5,21.4,29.3,2.8,5.73,1.87,0.0,26.8
2015-09-11 00:28:00,0.0,1.99719,0.00121,393.164,0.044,0.9396,0.0030,139.997,45.000,31576.38683,2.01617,397.743,34.814,45.069,45.000,0.00,0.09,-272.75,-272.81,-10,512,-934,21.2,29.1,2.5,21.4,29.4,2.8,5.73,2.10,0.0,26.8
2015-09-11 00:29:00,0.0,2.00033,0.00267,393.170,0.060,0.9422,0.0019,139.998,45.000,31575.23694,2.01914,397.760,34.760,45.068,45.000,0.00,0.09,-272.74,-272.81,-9,512,-934,21.2,29.2,2.6,21.4,29.4,2.8,5.73,1.94,0.0,26.8
2015-09-11 00:30:00,0.0,2.00403,0.00366,393.159,0.081,0.9457,0.0035,140.001,45.000,31573.88311,2.02325,397.768,34.728,45.068,45.000,0.00,0.10,-272.73,-272.80,-9,512,-934,21.2,29.3,2.6,21.4,29.6,2.9,5.73,1.76,0.0,26.8
2015-09-11 00:31:00,0.0,2.00586,0.00204,393.228,0.041,0.9450,0.0024,140.002,44.999,31570.98076,2.02510,397.836,34.694,45.068,45.000,0.00,0.10,-272.74,-272.80,-9,512,-934,21.3,29.3,2.6,21.4,29.6,2.9,5.73,1.97,0.0,26.8
2015-09-11 00:32:00,0.0,2.00710,0.00392,393.103,0.155,0.9468,0.0054,140.000,44.999,31567.81140,2.02665,397.725,34.698,45.068,45.000,0.00,0.09,-272.75,-272.81,-10,512,-934,21.2,29.3,2.6,21.4,29.6,2.9,5.73,2.10,0.0,26.8
2015-09-11 00:33:00,0.0,1.99028,0.00325,392.355,0.177,0.9215,0.0092,140.004,45.000,31568.85171,2.00915,396.843,34.744,45.068,45.000,0.00,0.10,-272.74,-272.81,-10,512,-934,21.3,28.5,2.2,21.4,29.1,2.7,5.73,1.79,0.0,26.8
2015-09-11 00:34:00,0.0,1.98116,0.00244,392.050,0.073,0.9038,0.0054,140.002,45.000,31570.21082,1.99965,396.443,34.793,45.068,45.000,0.00,0.10,-272.74,-272.80,-9,512,-934,21.2,27.9,1.9,21.4,28.4,2.3,5.73,1.89,0.0,26.8
2015-09-11 00:35:00,0.0,1.98315,0.00174,392.005,0.030,0.9085,0.0043,140.002,45.000,31573.43468,2.00122,396.413,34.844,45.069,45.000,0.00,0.10,-272.75,-272.81,-9,512,-934,21.2,28.0,2.0,21.4,28.3,2.3,5.73,2.11,0.0,26.9
2015-09-11 00:36:00,0.0,1.98348,0.00171,391.997,0.037,0.9063,0.0030,140.001,45.001,31573.47644,2.00176,396.395,34.874,45.069,45.001,0.00,0.10,-272.74,-272.81,-10,512,-934,21.2,28.0,2.0,21.4,28.3,2.3,5.73,1.77,0.0,26.9
2015-09-11 00:37:00,0.0,1.98563,0.00155,391.997,0.032,0.9098,0.0028,139.999,45.001,31575.52549,2.00386,396.413,34.875,45.068,45.000,0.00,0.10,-272.74,-272.79,-9,512,-934,21.2,28.2,2.0,21.4,28.4,2.3,5.73,1.91,0.0,26.9
2015-09-11 00:38:00,0.0,1.98474,0.00064,392.013,0.037,0.9103,0.0018,139.998,45.001,31574.43894,2.00308,396.432,34.875,45.068,45.000,0.00,0.09,-272.75,-272.80,-9,512,-934,21.2,28.2,2.0,21.4,28.4,2.3,5.73,2.11,-0.0,26.8
2015-09-11 00:39:00,0.0,1.98511,0.00194,391.959,0.050,0.9109,0.0036,140.000,45.000,31574.61238,2.00334,396.379,34.872,45.068,45.000,0.00,0.10,-272.74,-272.81,-9,512,-934,21.2,28.1,2.0,21.4,28.4,2.3,5.73,1.84,0.0,26.9
2015-09-11 00:40:00,0.0,1.98724,0.00257,392.024,0.042,0.9108,0.0027,139.997,45.000,31572.03149,2.00538,396.443,34.862,45.068,44.999,0.00,0.10,-272.74,-272.80,-10,512,-934,21.2,28.2,2.1,21.4,28.4,2.3,5.73,1.79,0.0,26.9
2015-09-11 00:41:00,0.0,1.98433,0.00289,391.984,0.038,0.9105,0.0028,139.998,45.000,31572.88291,2.00282,396.405,34.816,45.067,44.999,0.00,0.10,-272.74,-272.80,-10,512,-934,21.3,28.1,2.1,21.4,28.4,2.3,5.73,2.06,0.0,26.8
2015-09-11 00:42:00,0.0,1.98438,0.00345,391.972,0.034,0.9122,0.0033,140.000,44.999,31571.73404,2.00281,396.398,34.763,45.067,44.999,0.00,0.09,-272.74,-272.81,-9,512,-934,21.3,28.2,2.1,21.4,28.4,2.4,5.73,2.02,0.0,26.8
2015-09-11 00:43:00,0.0,1.98174,0.00308,391.932,0.045,0.9101,0.0043,140.001,44.999,31571.73725,2.00010,396.350,34.750,45.067,44.999,0.00,0.10,-272.74,-272.81,-9,512,-934,21.3,28.1,2.1,21.4,28.4,2.3,5.73,1.76,0.0,26.8
2015-09-11 00:44:00,0.0,1.98407,0.00118,391.932,0.039,0.9147,0.0030,140.000,44.999,31569.55973,2.00234,396.372,34.750,45.068,45.000,0.00,0.10,-272.74,-272.80,-10,512,-934,21.2,28.3,2.1,21.4,28.5,2.4,5.73,1.93,0.0,26.8
2015-09-11 00:45:00,0.0,1.98420,0.00045,391.894,0.063,0.9189,0.0044,140.001,45.000,31572.14831,2.00266,396.353,34.751,45.068,45.000,0.00,0.09,-272.75,-272.81,-10,512,-934,21.2,28.4,2.2,21.4,28.6,2.4,5.73,2.11,0.0,26.8
2015-09-11 00:46:00,0.0,1.98774,0.00212,391.906,0.035,0.9208,0.0032,140.001,45.000,31572.22321,2.00611,396.376,34.789,45.068,45.000,0.00,0.10,-272.74,-272.81,-9,512,-934,21.2,28.5,2.2,21.4,28.8,2.5,5.73,1.80,0.0,26.8
2015-09-11 00:47:00,0.0,1.98831,0.00266,391.871,0.030,0.9236,0.0040,140.001,45.001,31574.55509,2.00714,396.357,34.832,45.069,45.001,0.00,0.10,-272.74,-272.80,-9,512,-934,21.2,28.7,2.3,21.4,28.9,2.5,5.73,1.88,-0.0,26.8
2015-09-11 00:48:00,0.0,1.98448,0.00325,391.842,0.026,0.9184,0.0034,140.000,45.001,31574.72513,2.00300,396.298,34.869,45.069,45.001,0.00,0.09,-272.75,-272.81,-10,512,-934,21.2,28.5,2.2,21.3,28.8,2.5,5.73,2.12,0.0,26.8
2015-09-11 00:49:00,0.0,1.98367,0.00230,391.864,0.031,0.9198,0.0026,140.000,45.001,31573.77617,2.00217,396.329,34.899,45.069,45.001,0.00,0.10,-272.74,-272.82,-10,512,-934,21.2,28.6,2.2,21.3,28.8,2.4,5.73,1.82,0.0,26.8
2015-09-11 00:50:00,0.0,1.98160,0.00172,391.845,0.037,0.9168,0.0033,140.001,45.001,31573.44227,1.99989,396.293,34.938,45.069,45.001,0.00,0.10,-272.74,-272.80,-9,512,-934,21.1,28.5,2.2,21.3,28.7,2.4,5.73,1.85,0.0,26.8
2015-09-11 00:51:00,0.0,1.98712,0.00188,391.843,0.028,0.9265,0.0033,140.001,45.001,31575.47750,2.00564,396.340,34.933,45.068,45.000,0.00,0.09,-272.75,-272.80,-9,512,-934,21.1,28.8,2.3,21.3,28.9,2.5,5.73,2.12,0.0,26.8
2015-09-11 00:52:00,0.0,1.98851,0.00121,391.766,0.066,0.9337,0.0042,139.999,45.000,31576.20303,2.00742,396.300,34.913,45.068,45.000,0.00,0.09,-272.75,-272.81,-10,512,-934,21.2,29.0,2.4,21.3,29.1,2.6,5.73,1.90,0.0,26.8
2015-09-11 00:53:00,0.0,1.98671,0.00031,391.779,0.039,0.9289,0.0036,140.000,45.000,31575.39013,2.00544,396.289,34.877,45.068,45.000,0.00,0.10,-272.74,-272.80,-10,512,-934,21.2,28.9,2.4,21.4,29.2,2.7,5.73,1.77,0.0,26.8
2015-09-11 00:54:00,0.0,1.98426,0.00235,391.749,0.035,0.9188,0.0078,140.000,44.999,31572.48196,2.00293,396.210,34.823,45.068,44.999,0.00,0.10,-272.75,-272.79,-9,512,-934,21.2,28.5,2.2,21.4,28.9,2.5,5.73,2.01,0.0,26.8
2015-09-11 00:55:00,0.0,1.98345,0.00225,391.759,0.046,0.9044,0.0041,140.001,44.999,31569.84103,2.00142,396.143,34.805,45.067,44.999,0.00,0.09,-272.75,-272.81,-9,512,-934,21.2,28.0,1.9,21.4,28.4,2.3,5.73,2.08,0.0,26.8
2015-09-11 00:56:00,0.0,1.98194,0.00118,391.771,0.026,0.9069,0.0024,140.000,44.999,31569.59800,2.00033,396.170,34.767,45.067,44.999,0.00,0.10,-272.74,-272.81,-10,512,-934,21.2,28.1,2.0,21.4,28.3,2.3,5.73,1.80,-0.0,26.8
2015-09-11 00:57:00,0.0,1.98161,0.00125,391.765,0.045,0.9099,0.0043,140.001,44.999,31566.58303,1.99991,396.178,34.755,45.067,45.000,0.00,0.10,-272.74,-272.80,-10,512,-934,21.2,28.2,2.0,21.4,28.5,2.3,5.73,1.85,-0.0,26.8
2015-09-11 00:58:00,0.0,1.97985,0.00120,391.800,0.034,0.9026,0.0047,140.000,44.999,31564.15928,1.99802,396.177,34.790,45.068,45.000,0.00,0.10,-272.74,-272.81,-9,512,-934,21.2,27.9,1.9,21.4,28.3,2.2,5.73,2.12,0.0,26.8
2015-09-11 00:59:00,0.0,1.98064,0.00103,391.803,0.032,0.9063,0.0048,140.000,45.000,31565.96563,1.99870,396.197,34.794,45.068,45.000,0.00,0.09,-272.74,-272.81,-9,512,-934,21.2,28.0,2.0,21.3,28.2,2.2,5.73,1.87,0.0,26.8
2015-09-11 01:00:00,0.0,1.98061,0.00081,391.806,0.035,0.9072,0.0054,140.000,45.000,31566.80803,1.99884,396.208,34.822,45.068,45.000,0.00,0.10,-272.74,-272.80,-10,512,-934,21.1,28.1,2.0,21.3,28.3,2.2,5.73,1.81,0.0,26.8
2015-09-11 01:01:00,0.0,1.98008,0.00099,391.796,0.039,0.9034,0.0042,140.002,45.001,31569.54552,1.99819,396.177,34.859,45.069,45.001,0.00,0.10,-272.75,-272.80,-10,512,-934,21.1,28.1,1.9,21.3,28.3,2.2,5.73,2.12,-0.0,26.8
2015-09-11 01:02:00,0.0,1.97894,0.00098,391.813,0.029,0.9008,0.0045,139.999,45.001,31570.83203,1.99705,396.182,34.868,45.069,45.001,0.00,0.10,-272.75,-272.82,-9,512,-934,21.2,28.0,1.9,21.3,28.2,2.2,5.73,1.90,-0.0,26.7
2015-09-11 01:03:00,0.0,1.97806,0.00071,391.782,0.039,0.9012,0.0036,140.001,45.000,31571.50257,1.99609,396.152,34.831,45.068,45.000,0.00,0.10,-272.74,-272.81,-9,512,-934,21.2,27.9,1.9,21.3,28.2,2.1,5.73,1.78,0.0,26.8
2015-09-11 01:04:00,0.0,1.97969,0.00090,391.792,0.039,0.9049,0.0028,139.998,45.000,31568.01186,1.99784,396.179,34.812,45.068,45.000,0.00,0.10,-272.74,-272.80,-10,512,-934,21.2,28.1,2.0,21.3,28.3,2.2,5.73,2.06,-0.0,26.8
2015-09-11 01:05:00,0.0,1.97844,0.00113,391.821,0.027,0.9037,0.0043,140.001,45.000,31568.59133,1.99659,396.204,34.807,45.068,45.000,0.00,0.10,-272.75,-272.81,-10,512,-934,21.2,28.0,1.9,21.4,28.3,2.2,5.73,2.02,-0.0,26.8
2015-09-11 01:06:00,0.0,1.97782,0.00062,391.842,0.035,0.9032,0.0039,139.998,45.000,31568.17932,1.99591,396.223,34.805,45.068,45.000,0.00,0.10,-272.75,-272.80,-9,512,-934,21.2,28.0,1.9,21.4,28.2,2.2,5.73,1.75,-0.0,26.8
2015-09-11 01:07:00,0.0,1.97921,0.00085,391.781,0.049,0.9155,0.0074,140.003,45.000,31570.02652,1.99752,396.221,34.818,45.068,45.000,0.00,0.10,-272.75,-272.79,-9,512,-934,21.2,28.4,2.2,21.3,28.5,2.3,5.73,1.96,-0.0,26.8
2015-09-11 01:08:00,0.0,1.98032,0.00084,391.831,0.040,0.9107,0.0048,139.999,45.000,31566.81069,1.99852,396.249,34.864,45.068,45.000,0.00,0.10,-272.74,-272.80,-10,512,-934,21.2,28.3,2.1,21.3,28.6,2.4,5.73,2.09,0.0,26.8
2015-09-11 01:09:00,0.0,1.97901,0.00106,391.907,0.057,0.9069,0.0045,140.000,45.000,31568.66234,1.99721,396.307,34.892,45.068,45.000,0.00,0.10,-272.74,-272.81,-10,512,-934,21.1,28.2,2.0,21.3,28.5,2.3,5.73,1.76,-0.0,26.8
2015-09-11 01:10:00,0.0,1.98232,0.00077,391.892,0.030,0.9163,0.0047,140.000,45.001,31567.97195,2.00063,396.337,34.936,45.068,45.000,0.00,0.10,-272.74,-272.80,-9,512,-934,21.1,28.5,2.2,21.3,28.6,2.4,5.73,1.96,-0.0,26.8
2015-09-11 01:11:00,0.0,1.98044,0.00151,391.923,0.047,0.9103,0.0065,140.002,45.000,31572.02696,1.99889,396.343,34.932,45.068,45.000,0.00,0.10,-272.74,-272.80,-9,512,-934,21.1,28.3,2.0,21.3,28.6,2.4,5.73,2.09,0.0,26.8
2015-09-11 01:12:00,0.0,1.98029,0.00141,391.968,0.033,0.9071,0.0067,140.000,45.000,31570.36551,1.99847,396.369,34.903,45.068,45.000,0.00,0.10,-272.74,-272.81,-10,512,-934,21.1,28.1,2.0,21.3,28.4,2.3,5.73,1.79,-0.0,26.8
2015-09-11 01:13:00,0.0,1.98023,0.00180,391.988,0.033,0.9033,0.0062,140.000,45.000,31569.62199,1.99830,396.372,34.871,45.068,45.000,0.00,0.10,-272.75,-272.81,-10,512,-934,21.2,28.0,1.9,21.3,28.3,2.2,5.73,1.87,-0.0,26.8
2015-09-11 01:14:00,0.0,1.97768,0.00142,391.971,0.029,0.8985,0.0040,139.999,45.000,31567.97022,1.99580,396.329,34.828,45.068,45.000,0.00,0.10,-272.74,-272.80,-9,512,-934,21.2,27.8,1.9,21.3,28.2,2.2,5.73,2.11,0.0,26.8
2015-09-11 01:15:00,0.0,1.97975,0.00124,391.942,0.053,0.9071,0.0078,139.998,45.000,31567.10903,1.99777,396.342,34.803,45.068,45.000,0.00,0.10,-272.74,-272.81,-9,512,-934,21.2,28.2,2.0,21.3,28.3,2.2,5.73,1.90,-0.0,26.8
2015-09-11 01:16:00,0.0,1.97846,0.00158,392.001,0.050,0.9027,0.0080,140.002,44.999,31564.32126,1.99658,396.382,34.758,45.068,45.000,0.00,0.10,-272.75,-272.81,-10,512,-934,21.2,27.9,1.9,21.3,28.3,2.3,5.73,1.77,-0.0,26.8
2015-09-11 01:17:00,0.0,1.97905,0.00083,391.974,0.031,0.9047,0.0022,139.999,45.000,31563.21788,1.99726,396.365,34.773,45.068,45.000,0.00,0.10,-272.75,-272.80,-10,512,-934,21.2,28.0,2.0,21.3,28.3,2.2,5.73,2.06,-0.0,26.8
2015-09-11 01:18:00,0.0,1.97973,0.00118,391.946,0.039,0.9082,0.0052,140.001,45.000,31564.27888,1.99791,396.353,34.815,45.068,45.000,0.00,0.10,-272.74,-272.80,-9,512,-934,21.2,28.2,2.0,21.3,28.4,2.3,5.73,2.00,-0.0,26.8
2015-09-11 01:19:00,0.0,1.97787,0.00080,391.983,0.043,0.9030,0.0047,140.000,45.000,31564.17987,1.99604,396.365,34.823,45.068,45.000,0.00,0.10,-272.74,-272.81,-9,512,-934,21.1,28.0,1.9,21.3,28.3,2.2,5.73,1.75,-0.0,26.8
2015-09-11 01:20:00,0.0,1.97856,0.00079,391.982,0.020,0.9027,0.0036,140.002,45.000,31566.25375,1.99655,396.360,34.836,45.069,45.001,0.00,0.10,-272.75,-272.80,-10,512,-934,21.1,28.0,1.9,21.3,28.2,2.2,5.73,2.04,-0.0,26.7
2015-09-11 01:21:00,0.0,1.98082,0.00084,391.932,0.036,0.9128,0.0032,140.001,45.000,31563.40554,1.99911,396.361,34.815,45.068,45.000,0.00,0.09,-272.74,-272.80,-10,512,-934,21.1,28.3,2.1,21.3,28.5,2.3,5.73,2.04,0.0,26.7
2015-09-11 01:22:00,0.0,1.97959,0.00160,391.929,0.046,0.9105,0.0062,139.999,45.000,31562.17468,1.99787,396.347,34.793,45.068,45.000,0.00,0.10,-272.74,-272.80,-9,512,-934,21.2,28.2,2.1,21.3,28.5,2.3,5.73,1.76,-0.0,26.7
2015-09-11 01:23:00,0.0,1.97775,0.00097,391.976,0.040,0.9020,0.0046,140.000,45.000,31561.99343,1.99586,396.354,34.763,45.068,45.000,0.00,0.10,-272.75,-272.80,-9,512,-934,21.2,28.0,1.9,21.3,28.4,2.3,5.73,1.90,-0.0,26.7
2015-09-11 01:24:00,0.0,1.97813,0.00095,391.945,0.027,0.9019,0.0043,139.999,44.999,31558.05227,1.99622,396.322,34.751,45.068,45.000,0.00,0.10,-272.74,-272.80,-10,512,-933,21.2,27.9,1.9,21.3,28.2,2.2,5.73,2.11,-0.0,26.7
2015-09-11 01:25:00,0.0,1.97897,0.00132,391.908,0.037,0.9069,0.0065,140.001,45.000,31557.48709,1.99717,396.309,34.750,45.068,45.000,0.00,0.10,-272.74,-272.81,-10,512,-933,21.2,28.1,2.0,21.3,28.3,2.2,5.73,1.86,-0.0,26.8
2015-09-11 01:26:00,0.0,1.97869,0.00121,391.955,0.035,0.9037,0.0053,140.000,45.000,31558.66019,1.99669,396.339,34.748,45.068,45.000,0.00,0.10,-272.74,-272.81,-9,512,-933,21.2,28.0,1.9,21.4,28.3,2.2,5.73,1.79,-0.0,26.8
2015-09-11 01:27:00,0.0,1.97885,0.00181,391.910,0.037,0.9052,0.0074,140.001,45.000,31560.38405,1.99706,396.303,34.772,45.068,45.000,0.00,0.10,-272.75,-272.80,-9,512,-934,21.2,28.0,2.0,21.3,28.4,2.3,5.73,2.12,-0.0,26.8
2015-09-11 01:28:00,0.0,1.97849,0.00166,391.926,0.041,0.9007,0.0054,139.999,45.000,31560.60378,1.99647,396.295,34.814,45.068,45.000,0.00,0.10,-272.74,-272.80,-10,512,-934,21.2,27.9,1.9,21.3,28.1,2.1,5.73,1.86,-0.0,26.8
2015-09-11 01:29:00,0.0,1.97931,0.00121,391.894,0.061,0.9120,0.0060,140.000,45.001,31563.94878,1.99767,396.319,34.863,45.069,45.001,0.00,0.10,-272.75,-272.80,-10,512,-934,21.2,28.3,2.1,21.3,28.5,2.3,5.73,1.84,-0.0,26.8
2015-09-11 01:30:00,0.0,1.98039,0.00203,391.891,0.068,0.9108,0.0073,140.000,45.001,31566.10167,1.99868,396.311,34.884,45.069,45.001,0.00,0.10,-272.75,-272.81,-9,512,-934,21.2,28.3,2.1,21.3,28.5,2.3,5.73,2.12,-0.0,26.8
2015-09-11 01:31:00,0.0,1.97726,0.00138,391.857,0.051,0.9011,0.0046,139.998,45.001,31568.99291,1.99540,396.230,34.935,45.069,45.001,0.00,0.10,-272.74,-272.81,-9,512,-934,21.2,27.9,1.9,21.3,28.3,2.2,5.73,1.81,0.0,26.8
2015-09-11 01:32:00,0.0,1.97757,0.00185,391.826,0.031,0.8971,0.0049,140.000,45.001,31571.93959,1.99543,396.176,34.938,45.069,45.000,0.00,0.10,-272.75,-272.80,-10,512,-934,21.2,27.9,1.9,21.3,28.1,2.1,5.73,1.85,-0.0,26.8
2015-09-11 01:33:00,0.0,1.97744,0.00157,391.817,0.041,0.8990,0.0052,140.000,45.000,31571.12665,1.99556,396.178,34.909,45.068,45.000,0.00,0.09,-272.75,-272.80,-9,512,-934,21.2,27.8,1.8,21.3,28.1,2.1,5.73,2.11,-0.0,26.8
2015-09-11 01:34:00,0.0,1.97613,0.00128,391.819,0.034,0.8926,0.0035,139.998,45.000,31568.95265,1.99392,396.145,34.875,45.068,45.000,0.00,0.10,-272.74,-272.80,-9,512,-933,21.2,27.6,1.8,21.3,27.9,2.0,5.73,1.90,0.0,26.8
2015-09-11 01:35:00,0.0,1.97752,0.00080,391.845,0.034,0.8991,0.0026,139.999,45.000,31568.48762,1.99550,396.204,34.875,45.068,44.999,0.00,0.10,-272.74,-272.80,-9,512,-933,21.2,27.8,1.9,21.3,28.1,2.1,5.73,1.77,0.0,26.8
2015-09-11 01:36:00,0.0,1.97817,0.00082,391.849,0.043,0.9031,0.0023,140.000,45.000,31566.92712,1.99619,396.229,34.864,45.067,44.999,0.00,0.09,-272.75,-272.80,-10,512,-933,21.2,28.0,1.9,21.4,28.2,2.2,5.73,2.08,-0.0,26.8
2015-09-11 01:37:00,0.0,1.98109,0.00262,391.855,0.025,0.9095,0.0036,140.001,45.000,31565.72975,1.99939,396.268,34.870,45.068,45.000,0.00,0.10,-272.74,-272.81,-9,512,-934,21.2,28.2,2.0,21.3,28.4,2.3,5.73,1.96,-0.0,26.8
2015-09-11 01:38:00,0.0,1.98253,0.00282,391.823,0.038,0.9129,0.0070,140.004,45.000,31568.29501,2.00073,396.251,34.895,45.068,45.000,0.00,0.10,-272.74,-272.81,-9,512,-934,21.2,28.3,2.1,21.3,28.5,2.3,5.73,1.75,-0.0,26.8
2015-09-11 01:39:00,0.0,1.98327,0.00166,391.757,0.035,0.9160,0.0025,139.999,45.000,31567.79655,2.00178,396.202,34.934,45.068,45.000,0.00,0.09,-272.75,-272.80,-10,512,-934,21.2,28.4,2.1,21.3,28.7,2.4,5.73,2.09,-0.0,26.8
2015-09-11 01:40:00,0.0,1.97618,0.00105,391.761,0.032,0.8981,0.0051,140.001,45.001,31570.59063,1.99431,396.119,34.940,45.069,45.001,0.00,0.09,-272.74,-272.81,-10,512,-934,21.1,27.8,1.8,21.3,28.3,2.2,5.73,1.94,-0.0,26.8
2015-09-11 01:41:00,0.0,1.97452,0.00064,391.679,0.033,0.8907,0.0019,140.000,45.000,31571.25650,1.99235,395.998,34.938,45.068,45.000,0.00,0.10,-272.74,-272.80,-9,512,-934,21.2,27.6,1.7,21.3,27.9,2.0,5.73,1.76,-0.0,26.8
2015-09-11 01:42:00,0.0,1.97571,0.00084,391.689,0.031,0.8918,0.0027,140.001,45.000,31570.70666,1.99344,396.010,34.891,45.068,45.000,0.00,0.10,-272.75,-272.80,-9,512,-934,21.2,27.6,1.8,21.3,27.9,2.0,5.73,2.05,-0.0,26.8
2015-09-11 01:43:00,0.0,1.97879,0.00180,391.663,0.030,0.8996,0.0049,139.999,45.000,31570.00816,1.99665,396.024,34.863,45.068,45.000,0.00,0.09,-272.75,-272.81,-10,512,-933,21.2,27.9,1.9,21.4,28.1,2.1,5.73,2.03,-0.0,26.8
2015-09-11 01:44:00,0.0,1.97715,0.00307,391.630,0.035,0.8936,0.0062,140.001,44.999,31567.57057,1.99527,395.962,34.808,45.068,44.999,0.00,0.10,-272.74,-272.80,-10,512,-933,21.2,27.6,1.7,21.4,28.0,2.1,5.73,1.76,-0.0,26.8
2015-09-11 01:45:00,0.0,1.97814,0.00119,391.636,0.040,0.8998,0.0045,139.999,44.999,31563.23679,1.99600,395.996,34.774,45.068,45.000,0.00,0.10,-272.74,-272.80,-9,512,-933,21.2,27.8,1.9,21.4,28.0,2.1,5.73,1.92,-0.0,26.8
2015-09-11 01:46:00,0.0,1.97988,0.00180,391.662,0.045,0.9145,0.0034,140.000,44.999,31560.04296,1.99831,396.096,34.752,45.068,45.000,0.00,0.09,-272.75,-272.80,-9,512,-933,21.2,28.3,2.1,21.4,28.5,2.3,5.73,2.11,-0.0,26.8